Wind_Speed
6 5 4 5 4 6 6 6 5 4 5 6 6 7 8 8 9 9 9 10 11 11 10 10 12 13 15 15 16 16 15 15 15 14 15 15 14 15 15 15 14 16 17
6 6 5 5 4 6 6 6 6 5 6 6 6 7 8 8 9 9 10 10 11 12 12 12 13 14 15 16 17 18 18 16 16 15 16 16 16 16 15 16 16 17 17
7 6 6 6 5 6 6 6 6 6 6 9 7 8 9 10 10 10 11 12 13 13 14 14 15 16 17 17 17 18 19 19 18 18 17 17 18 18 18 17 18 19 19
7 7 7 6 6 6 6 6 6 6 8 9 9 10 11 11 12 12 13 13 14 15 15 16 17 17 17 18 18 19 20 21 21 21 20 19 20 21 21 20 20 21 21
8 7 6 6 6 6 6 7 7 6 8 10 11 11 11 13 13 13 13 14 15 15 16 17 18 19 19 20 21 21 22 22 22 23 23 23 23 23 24 23 23 23 23
9 7 7 7 6 6 7 8 9 8 9 10 11 12 12 13 15 15 15 16 16 17 18 20 20 21 21 22 23 24 24 24 25 25 25 26 27 26 26 26 26 26 25
9 8 7 7 7 7 9 10 9 9 11 10 11 12 13 14 15 16 16 17 18 19 20 22 23 23 25 25 26 26 27 27 27 28 29 29 28 29 29 29 28 28 28
9 9 8 7 8 8 10 11 10 9 12 11 12 13 14 15 16 17 18 19 20 21 22 23 25 25 26 26 27 29 29 29 30 30 31 30 30 30 29 30 31 30 30
9 9 9 8 8 9 10 12 11 11 14 13 13 14 15 15 16 18 19 20 21 22 22 23 25 26 27 27 28 29 30 31 31 32 31 31 32 32 32 31 31 32 33
9 8 11 7 8 10 10 12 13 12 14 15 15 16 17 18 18 18 19 19 20 21 22 24 25 28 29 30 30 30 31 32 32 32 33 34 33 34 35 35 35 34 35
10 9 11 7 9 11 12 11 13 13 14 16 16 18 18 19 19 18 18 19 19 22 24 26 28 30 32 34 34 34 34 35 35 36 36 36 36 36 36 37 36 38 38
10 9 11 8 9 12 12 11 13 14 15 17 18 18 19 20 21 22 22 23 22 21 23 25 28 31 34 35 37 39 39 40 41 41 41 42 42 42 41 41 41 40 41
10 9 9 10 9 12 12 12 14 16 16 17 18 18 20 21 24 26 28 30 31 28 26 27 30 33 36 38 39 41 41 42 43 44 44 45 46 46 46 46 46 45 45
10 9 8 12 10 11 12 13 15 16 17 17 18 20 22 24 27 30 33 36 39 39 35 33 31 35 38 40 41 44 45 44 45 45 45 46 47 48 49 49 49 49 49
9 9 9 12 12 10 13 14 16 16 17 18 20 22 24 27 30 33 36 39 44 49 50 43 40 36 39 39 41 45 46 48 49 50 51 51 50 49 49 49 50 51 51
10 9 9 13 11 12 13 15 16 17 18 20 22 24 27 30 33 36 38 41 44 48 53 51 49 48 44 42 43 46 48 51 52 53 55 55 56 56 56 54 52 50 51
9 10 11 12 11 12 13 15 16 18 20 22 25 28 30 32 36 38 40 42 43 47 52 52 54 54 55 54 51 51 52 54 55 54 56 57 57 56 57 56 56 55 54
9 9 12 11 12 12 13 15 17 20 23 25 28 30 33 35 37 39 41 42 45 47 52 56 56 58 59 59 59 60 59 58 59 59 57 57 58 57 57 57 56 55 55
10 11 12 11 11 13 15 17 20 23 26 28 30 33 35 37 38 41 43 45 47 50 52 56 59 60 63 64 65 64 63 63 63 59 56 54 52 54 55 55 55 55 55
10 12 11 10 12 14 16 19 22 25 28 30 33 35 37 40 42 44 47 49 51 53 55 58 60 62 62 63 64 65 66 63 62 59 56 53 50 46 45 46 47 48 51
11 11 10 12 14 16 19 22 24 27 29 31 34 36 39 42 45 49 52 55 56 57 59 60 62 63 62 61 60 60 59 57 53 49 48 45 43 39 35 34 37 40 43
10 10 12 14 16 18 21 23 26 28 30 32 34 37 41 44 47 51 53 55 56 57 58 59 59 57 53 51 48 48 48 47 49 43 42 37 37 33 30 28 28 31 34
10 11 13 15 18 21 23 25 27 29 31 35 38 43 46 50 54 55 55 54 53 52 48 47 45 41 41 39 40 42 42 42 41 40 41 39 36 34 31 28 25 24 25
9 11 14 17 19 22 24 26 29 31 34 38 44 49 54 55 55 54 54 53 49 42 39 40 42 42 41 39 38 39 40 40 37 35 35 37 32 31 29 27 26 25 24
10 13 15 18 20 23 26 28 31 34 38 44 48 52 53 53 52 51 51 49 47 46 46 45 44 42 40 38 37 38 37 38 35 32 29 31 30 29 30 30 30 29 29
11 13 16 19 22 25 27 31 35 39 44 47 48 50 51 50 49 49 50 48 47 46 47 47 45 44 42 40 37 37 37 37 36 35 33 34 34 35 35 33 31 22 20
Wind_Direction
250 255 252 255 262 271 276 278 279 287 298 309 326 328 336 337 330 327 325 320 315 313 313 312 308 307 305 304 301 300 299 297 295 294 293 290 285 284 281 277 273 272 272
242 250 255 261 262 269 273 269 269 281 294 297 307 319 323 326 322 321 318 314 308 307 307 306 305 304 302 300 298 298 296 294 292 290 289 287 286 282 279 278 274 271 270
240 250 256 262 264 267 267 267 277 287 300 294 302 307 310 314 314 315 312 309 305 304 304 305 303 301 298 296 293 292 291 292 290 289 286 285 284 282 279 276 273 271 268
238 246 255 261 266 266 272 276 282 294 302 293 298 299 302 307 308 309 308 307 304 304 304 303 301 299 296 294 292 290 288 288 289 288 286 282 280 279 277 275 272 271 270
237 249 253 260 265 271 277 280 281 287 291 293 295 295 296 300 302 305 304 302 300 301 302 302 301 299 298 295 292 290 289 287 286 286 286 286 283 281 280 278 275 272 271
243 249 251 257 262 267 273 276 280 289 290 290 289 290 293 295 298 301 300 299 298 299 301 301 301 300 298 295 293 291 289 287 286 286 286 287 286 284 280 278 278 276 273
244 248 252 255 263 270 279 278 285 292 288 288 287 290 291 293 295 295 296 296 298 299 301 301 300 299 298 297 295 294 292 291 290 291 291 291 288 286 285 283 280 278 277
242 251 255 256 267 276 283 281 288 293 290 288 289 291 293 294 295 296 297 298 299 300 302 302 301 300 298 297 296 296 295 293 292 291 291 290 289 288 286 285 284 282 280
242 250 257 259 268 279 287 289 291 300 293 295 294 294 294 293 295 298 298 299 299 300 301 300 301 300 301 301 300 299 298 297 296 295 294 293 291 289 286 283 281 282 282
240 248 254 260 272 285 283 288 294 295 297 296 297 298 297 296 296 298 299 300 302 301 303 303 303 303 303 302 300 298 297 297 296 294 293 292 290 288 288 287 287 285 283
239 245 255 261 275 282 284 294 296 297 297 297 300 300 300 300 300 299 296 299 306 308 308 307 305 303 302 301 300 299 296 294 292 291 290 288 285 283 282 281 280 279 277
236 244 256 262 276 285 288 296 295 297 300 301 301 302 303 305 304 302 299 296 295 293 297 299 300 299 299 300 299 298 297 294 292 291 290 289 287 286 285 283 281 280 279
234 241 256 268 272 283 290 297 298 301 301 301 302 304 306 305 305 305 305 304 302 297 295 295 295 294 294 295 297 296 295 293 292 291 289 287 285 284 283 281 281 279 278
236 245 259 270 277 282 299 299 301 302 301 303 305 306 305 306 307 308 309 309 306 304 301 303 300 298 296 296 295 294 294 293 292 290 288 287 285 284 283 281 280 278 276
239 248 263 281 277 295 300 303 302 302 304 305 304 304 307 310 309 310 310 311 311 310 309 312 308 305 301 300 298 296 295 294 292 292 292 290 288 286 283 281 278 277 275
241 258 268 273 293 301 303 303 302 303 302 302 303 306 309 311 311 312 312 311 311 310 309 312 312 310 305 302 300 297 295 292 292 291 289 288 288 287 286 284 282 278 275
248 264 275 284 296 301 301 301 301 300 301 303 306 310 311 312 312 311 311 311 310 309 308 309 309 308 307 305 302 297 296 294 290 288 287 286 285 284 283 282 281 279 277
253 273 281 288 294 297 301 298 298 300 304 307 310 312 312 313 312 311 311 310 308 307 307 306 307 305 304 303 301 300 298 294 292 291 290 288 286 285 283 281 279 277 275
264 273 279 288 295 298 296 299 302 305 307 311 312 313 313 314 314 313 310 309 307 307 306 305 304 304 303 303 302 299 297 295 294 293 289 287 286 284 281 281 280 277 275
267 273 282 291 294 294 299 302 305 308 313 315 316 317 318 317 315 312 309 308 308 308 307 306 304 303 303 302 300 301 299 300 299 299 298 297 290 287 285 280 275 271 269
266 277 289 291 293 299 304 307 310 314 316 318 319 320 318 316 314 313 313 313 313 312 309 307 306 306 307 306 305 304 302 301 300 300 299 297 296 293 288 281 275 272 269
272 285 286 291 300 306 308 312 315 317 319 320 319 318 316 315 315 316 315 315 314 313 311 310 309 310 311 310 310 309 307 306 306 309 310 308 308 306 301 290 284 280 275
277 282 293 305 307 308 313 315 318 321 321 321 321 318 319 320 319 317 316 314 314 313 313 314 317 322 320 320 317 316 314 312 312 311 307 309 312 311 309 304 298 291 283
282 298 303 305 309 313 316 318 322 323 322 322 323 323 321 320 319 318 317 317 320 321 325 327 328 327 324 323 318 314 311 310 310 311 309 308 306 304 306 306 304 297 289
295 299 305 310 313 316 319 322 323 323 323 323 324 321 320 320 319 318 319 320 325 327 326 323 321 318 315 312 311 309 309 308 310 311 312 309 309 305 304 304 302 299 293
295 304 309 312 315 320 321 324 324 323 323 322 323 322 321 320 320 321 322 324 323 321 319 320 319 319 317 312 306 302 302 302 304 306 312 307 307 309 308 310 312 315 307
Height
3156 3156 3156 3157 3157 3158 3157 3157 3157 3156 3157 3156 3155 3155 3154 3154 3153 3152 3151 3151 3150 3149 3147 3146 3145 3144 3143 3142 3141 3139 3138 3137 3135 3134 3133 3132 3130 3129 3128 3127 3126 3126 3125
3153 3154 3154 3154 3154 3155 3155 3155 3154 3154 3154 3154 3153 3153 3152 3151 3151 3150 3149 3148 3148 3146 3145 3143 3142 3141 3140 3139 3137 3136 3134 3133 3131 3130 3129 3128 3126 3125 3124 3124 3123 3121 3121
3150 3151 3151 3151 3151 3151 3151 3152 3152 3152 3152 3152 3151 3151 3150 3149 3148 3148 3147 3146 3145 3144 3142 3140 3139 3137 3136 3135 3133 3132 3130 3128 3127 3125 3124 3123 3122 3121 3120 3119 3118 3117 3116
3147 3148 3148 3148 3149 3148 3149 3149 3149 3149 3149 3149 3148 3148 3148 3147 3146 3145 3144 3143 3142 3140 3139 3137 3135 3134 3132 3130 3129 3128 3126 3125 3123 3121 3120 3118 3117 3116 3115 3114 3113 3112 3111
3144 3145 3145 3145 3146 3146 3146 3147 3147 3146 3146 3146 3146 3145 3145 3144 3143 3142 3141 3140 3138 3137 3135 3133 3132 3130 3128 3126 3125 3123 3122 3120 3119 3117 3115 3114 3113 3111 3110 3108 3107 3106 3105
3142 3142 3142 3143 3143 3143 3144 3145 3144 3143 3144 3143 3143 3142 3142 3141 3140 3139 3137 3136 3135 3133 3131 3129 3127 3126 3124 3122 3120 3118 3117 3115 3114 3113 3111 3110 3108 3106 3104 3103 3101 3101 3099
3138 3139 3139 3140 3141 3140 3141 3142 3141 3140 3141 3140 3140 3139 3138 3137 3136 3135 3133 3132 3130 3128 3127 3125 3123 3121 3119 3117 3115 3113 3112 3110 3109 3107 3106 3105 3103 3101 3098 3097 3096 3094 3093
3135 3136 3137 3137 3138 3137 3138 3138 3137 3136 3138 3137 3137 3136 3135 3135 3133 3132 3130 3128 3126 3124 3122 3120 3118 3116 3114 3111 3109 3107 3105 3104 3102 3101 3099 3097 3095 3094 3093 3091 3089 3088 3087
3132 3133 3134 3134 3134 3134 3135 3135 3134 3133 3135 3133 3133 3133 3131 3131 3129 3128 3126 3124 3122 3120 3117 3115 3112 3110 3108 3106 3104 3101 3099 3098 3096 3094 3092 3090 3088 3086 3084 3083 3082 3080 3079
3128 3129 3131 3129 3131 3131 3131 3132 3131 3130 3130 3129 3128 3127 3127 3126 3125 3124 3122 3120 3118 3115 3113 3110 3108 3104 3102 3099 3097 3095 3093 3091 3088 3086 3084 3082 3080 3078 3076 3075 3074 3073 3071
3125 3126 3128 3126 3128 3128 3128 3128 3127 3127 3125 3125 3124 3123 3121 3120 3120 3119 3118 3117 3114 3110 3108 3105 3101 3098 3094 3091 3089 3087 3084 3082 3080 3077 3074 3072 3069 3067 3065 3064 3063 3061 3060
3121 3122 3124 3123 3125 3125 3125 3124 3124 3123 3122 3121 3119 3118 3116 3116 3114 3113 3112 3110 3109 3108 3104 3100 3096 3092 3088 3084 3081 3078 3075 3072 3070 3068 3065 3062 3059 3057 3056 3054 3053 3051 3050
3117 3118 3120 3121 3121 3121 3120 3119 3120 3119 3118 3117 3115 3113 3112 3110 3109 3106 3103 3101 3100 3100 3099 3096 3091 3086 3081 3076 3072 3068 3065 3061 3058 3056 3053 3050 3047 3045 3043 3042 3041 3040 3039
3113 3115 3115 3118 3116 3117 3116 3116 3115 3114 3114 3112 3111 3109 3108 3105 3103 3100 3096 3091 3087 3084 3087 3087 3086 3079 3073 3069 3064 3059 3055 3051 3047 3043 3040 3037 3035 3032 3031 3029 3027 3026 3025
3110 3112 3112 3114 3114 3112 3112 3111 3111 3110 3109 3108 3107 3105 3102 3099 3096 3093 3088 3084 3078 3069 3066 3072 3071 3070 3063 3060 3055 3048 3043 3038 3034 3030 3025 3022 3019 3017 3015 3014 3012 3011 3010
3107 3108 3109 3111 3109 3108 3108 3108 3107 3106 3105 3104 3102 3099 3097 3094 3090 3086 3082 3077 3072 3064 3055 3054 3052 3050 3049 3046 3042 3036 3031 3025 3021 3017 3012 3008 3004 3000 2997 2995 2994 2994 2993
3104 3105 3106 3105 3105 3104 3104 3104 3103 3102 3101 3099 3097 3094 3090 3088 3083 3079 3075 3070 3065 3057 3049 3046 3040 3035 3030 3027 3025 3021 3016 3010 3005 3002 2996 2992 2988 2985 2982 2979 2976 2974 2973
3100 3100 3102 3102 3101 3101 3100 3100 3099 3098 3096 3093 3090 3087 3084 3081 3076 3071 3066 3062 3056 3050 3042 3034 3029 3022 3016 3011 3007 3001 2998 2994 2987 2983 2980 2977 2972 2968 2964 2960 2959 2957 2956
3096 3097 3098 3098 3097 3097 3097 3096 3094 3092 3090 3087 3084 3080 3076 3072 3068 3063 3058 3052 3046 3039 3033 3024 3017 3010 3003 2996 2989 2985 2979 2973 2967 2965 2963 2959 2955 2949 2945 2943 2941 2938 2935
3093 3094 3094 3093 3093 3093 3092 3091 3090 3087 3084 3080 3076 3072 3068 3063 3058 3053 3047 3041 3034 3028 3021 3013 3005 2998 2991 2983 2973 2965 2958 2954 2946 2944 2939 2939 2934 2933 2930 2926 2921 2919 2916
3090 3090 3089 3089 3090 3089 3088 3087 3084 3081 3078 3074 3069 3065 3060 3054 3048 3041 3033 3026 3020 3013 3005 2996 2987 2981 2974 2966 2958 2949 2942 2935 2931 2927 2922 2921 2916 2915 2914 2911 2906 2903 2899
3086 3085 3086 3086 3085 3084 3083 3080 3078 3074 3070 3066 3063 3058 3053 3047 3040 3032 3024 3016 3008 2999 2990 2982 2974 2966 2959 2950 2942 2935 2928 2923 2917 2916 2909 2909 2904 2903 2901 2899 2896 2892 2889
3082 3082 3082 3081 3080 3079 3076 3073 3071 3067 3063 3058 3053 3048 3042 3035 3027 3020 3013 3005 2998 2990 2981 2971 2963 2956 2947 2941 2934 2927 2921 2915 2911 2907 2901 2898 2896 2892 2890 2888 2886 2884 2881
3078 3078 3078 3077 3075 3072 3070 3067 3063 3059 3054 3050 3044 3036 3029 3022 3015 3007 3000 2992 2985 2977 2970 2963 2954 2947 2940 2933 2927 2920 2913 2908 2905 2901 2896 2890 2889 2885 2883 2880 2877 2875 2872
3074 3074 3073 3071 3068 3066 3063 3060 3056 3051 3047 3041 3035 3027 3019 3011 3004 2997 2989 2981 2973 2965 2959 2953 2948 2941 2935 2927 2920 2912 2907 2901 2897 2894 2891 2885 2881 2878 2876 2872 2869 2866 2862
3070 3069 3068 3065 3063 3060 3057 3052 3048 3043 3038 3032 3027 3018 3010 3002 2995 2987 2977 2970 2964 2958 2952 2945 2938 2931 2924 2917 2911 2904 2898 2892 2889 2885 2883 2877 2873 2868 2865 2862 2858 2856 2853